Location: Dzierzno
(50.6159°N, 19.2852°E)
Time: 06:22:29
(UTC+00:00)

Cosmos 2251 Rocket - Pass Details

Date: 18 November 2025
Orbit: 760 x 788 km, 74.0° (Epoch: 06 December)

Event Time Altitude Azimuth Distance (km) Brightness Sun altitude
Rises 17:27:48 0° 218° (SW) 3,238 7.3 -24.3°
Reaches altitude 10° 17:30:13 10° 224° (SW) 2,320 6.5 -24.6°
Maximum altitude 17:35:22 52° 300° (WNW) 968 4.2 -25.5°
Enters shadow 17:38:34 23° 8° (N) 1,639 5.1 -26.0°
